map of TRK home
Great Circle Mapper logo
TRK - Airport
Location
City:  Tarakan, Kalimantan (Borneo), Indonesia
Name:Juwata
ICAO / IATA:WALR / TRK

Details
Type:Airport (Aerodrome, Airfield)
Use:International (customs port of entry)
Latitude:319'36"N (3.326694)
Longitude:11733'56"E (117.565569)
Datum:WGS 1984
Elevation:20 ft (6 m)
Variation:0.15E (WMM2015 magnetic declination)
-0.09 annual change
Runways:1
Longest:6045 × 95 ft (1843 × 29 m), paved

Time
Time Zone:UTC+8
Local Time:

Weather
TAF:WALR 252300Z 2600/2624 34005KT 9000 SCT015
BECMG 2609/2611 08003KT FEW015
BECMG 2619/2621 28003KT SCT015

Related Locations
Nearby:
Farthest:CIZ: 12363 mi / 19896 km
Coari, AM, BR

Find:

   beyond  
but within

Other Information
Maps:
NOTAMs:
Links:
Sources:

  
flag of Indonesia   

Sectional Chart

Flight Planning
at skyvector.com

Satellite Image

Google Maps Satellite View

 

Copyright © 2004-2015 Karl L. Swartz. All rights reserved.
The Great Circle Mapper name and logo are trademarks of the Great Circle Mapper.
All other trademarks mentioned herein belong to their respective owners.
Please see credits for attibutions and further copyright information.

  Follow gcmap on Facebook Follow gcmap on Twitter

hCard Microformat

Geo Microformat